Starlink 1964

operational
NORAD ID: 47565 Int'l Des: 2021-009 Owner: SPXS Country: US Constellation: starlink
LEOCIRCULARSTARLINK_TYPE

Über Starlink 1964

Beschreibung wird geladen...

Live-Position

3D-Globus wird geladen...

Nächste Überflüge

Höhenverlauf

Altitude vs Time

uPlot chart will show altitude changes over time

Zweizeiliger Elementsatz

1 47565U 21009T 25293.23702185 -.00001524 00000-0 -83481-4 0 9990
2 47565 53.0531 282.1351 0001710 76.0043 284.1136 15.06385814259762
Epoch: 20. Okt. 2025 • Age: 19 hours

Aktueller Status

Höhe 550.8 km
Geschwindigkeit 7.59 km/s
Subsatellitenpunkt 44.90°N, 79.08°W
Startdatum 4. Feb. 2021
Alter 4.7 years
Typ internet

Technische Details

Klassifizierung Payload
Masse 260.00 kg
Trockenmasse 248.00 kg
Gesamtmasse 260.00 kg
Länge 0.20 m
Durchmesser 2.80 m
Spannweite 9.00 m
Form Box + pan
Hersteller SPXS
Bus-Typ Starlink
Phasenstatus In Orbit
Besitzer/Staat SPXS/US

Große Konstellationen

Loading constellations...